Regional Weather Roundup
Issued by NWS

Home | Current Version | Previous Version | Text Only | Print | Product List | Glossary On
Versions: 1 2 3 4 5 6 7 8 9 10 11 12 13 14 15 16 17 18 19 20 21 22 23 24 25 26 27 28 29 30 31 32 33 34 35 36 37 38 39 40 41 42 43 44 45 46 47 48 49 50
000
ASUS43 KMPX 010501
RWRMN
WEATHER ROUNDUP FOR MINNESOTA
NATIONAL WEATHER SERVICE TWIN CITIES/CHANHASSEN MN
1200 AM CDT SAT AUG 01 2015


NOTE: "FAIR" INDICATES FEW OR NO CLOUDS BELOW 12,000 FEET WITH NO
SIGNIFICANT WEATHER AND/OR OBSTRUCTIONS TO VISIBILITY. N/A MEANS
CURRENT SKY AND/OR WEATHER CONDITIONS ARE NOT AVAILABLE.

MNZ060>063-068>070-010600-
   Twin Cities Metro

CITY           SKY/WX    TMP DP  RH WIND       PRES   REMARKS
TWIN CITIES    FAIR      72  57  59 W6        30.00S
ST PAUL        PTCLDY    71  57  61 SW3       30.00R
CRYSTAL        CLEAR     71  57  61 W5        29.99R
BLAINE         MOCLDY    72  57  60 W3        30.00S
LAKEVILLE      FAIR      61  57  88 CALM      30.01S
EDEN PRAIRIE   CLEAR     69  58  67 W6        30.00S
SOUTH ST PAUL  CLEAR     70  56  62 W6        30.00R
LAKE ELMO      FAIR      63  57  82 CALM      30.01S
$$
MNZ001>005-007-008-013>017-022>024-027-028-010600-
   Northwest Minnesota

CITY           SKY/WX    TMP DP  RH WIND       PRES   REMARKS
BEMIDJI        CLEAR     59  51  75 CALM      29.99S
HALLOCK        CLEAR     57  54  88 CALM      29.96S
ROSEAU         PTCLDY    59  54  82 SW5       29.95S
WARROAD        CLEAR     61  54  77 W6        29.95S
THIEF RVR FALL CLEAR     59  52  77 CALM      29.98S
CROOKSTON      CLEAR     61  54  77 CALM      29.99S
FOSSTON        CLEAR     54  48  82 CALM      30.00S
DETROIT LAKES  CLEAR     64  54  68 CALM      30.03R
MOORHEAD       CLEAR     64  57  77 CALM      30.01R
PARK RAPIDS    CLEAR     61  53  75 W3        30.01R
MAHNOMEN       FAIR      58  54  87 S3        30.00S
$$
MNZ006-009>011-018-025>026-010600-
   North Central Minnesota

CITY           SKY/WX    TMP DP  RH WIND       PRES   REMARKS
BAUDETTE       CLEAR     56  49  77 W3        29.94S
FLAG ISLAND    CLEAR     64  52  63 W9        29.91S
INTL FALLS     CLEAR     60  51  72 W6        29.92R
WASKISH        PTCLDY    66  55  68 W8        29.95S
BIG FORK       PTCLDY    57  48  72 CALM      29.96S
LONGVILLE      CLEAR     55  54  94 CALM      29.99S
GRAND RAPIDS   CLEAR     61  48  63 CALM      29.97F
CRANE LAKE     PTCLDY    57  55  94 CALM      29.94R
ORR            CLEAR     61  48  63 CALM      29.91S
COOK           CLEAR     55  48  76 CALM      29.94S
WALKER         FAIR      55  53  91 CALM      30.00R
$$
MNZ012-019>021-037-010600-
   Northeast Minnesota

CITY           SKY/WX    TMP DP  RH WIND       PRES   REMARKS
DULUTH         CLEAR     62  49  62 W8        29.95R
ELY            MOCLDY    57  54  88 NW3       29.93R
HIBBING        CLEAR     64  47  53 W8        29.95R
EVELETH        CLEAR     55  48  76 CALM      29.95S
DULUTH HARBOR  CLEAR     66  55  68 W10       29.94R
TWO HARBORS    CLEAR     63  52  67 NW3       29.91S
SILVER BAY     CLEAR     55  54  94 CALM      29.90S
GRAND MARAIS     N/A     66  53  63 NW7       29.84S
G MARAIS ARPRT   N/A     57  50  77 W3        29.90S
$$
MNZ029>031-032-039>041-046>048-054>057-064-010600-
   West Central Minnesota

CITY           SKY/WX    TMP DP  RH WIND       PRES   REMARKS
FERGUS FALLS   CLEAR     66  57  72 N3        30.00S
WHEATON        CLEAR     61  57  88 CALM      30.02R
MORRIS         CLEAR     66  61  82 CALM      29.99F
ALEXANDRIA     PTCLDY    67  61  81 CALM      30.03S
ELBOW LAKE     FAIR      66  64  93 CALM      30.01S
WADENA         CLOUDY    63  55  77 W3        30.01S
GLENWOOD       PTCLDY    66  59  77 CALM      30.03R
APPLETON       CLEAR     70  61  73 S6        29.99S
BENSON         CLEAR     64  57  77 CALM      30.00S
ORTONVILLE     CLEAR     68  61  77 SW3       30.00S
MADISON        CLEAR     64  61  88 SW5       30.00F
WILLMAR        FAIR      63  59  88 CALM      30.02S
$$
MNZ033>034-036-042>043-049>051-058-059-010600-
   Central Minnesota

CITY           SKY/WX    TMP DP  RH WIND       PRES   REMARKS
ST CLOUD       PTCLDY    65  58  78 CALM      30.00R
SAUK CENTRE    FAIR      64  60  86 CALM      30.02S
PAYNESVILLE    PTCLDY    59  58  94 CALM      30.02S
AITKIN         CLEAR     54  48  82 SW3       29.98S
PINE RIVER     CLEAR     54  52  94 CALM      30.04R
BRAINERD       PTCLDY    59  54  83 CALM      30.01R
STAPLES        MOCLDY    63  55  77 CALM      30.01S
LONG PRAIRIE   MOCLDY    63  59  88 S3        30.02S
LITTLE FALLS   PTCLDY    61  55  82 CALM      30.01S
LITCHFIELD     CLEAR     68  63  83 CALM      30.02S
BUFFALO        PTCLDY    67  58  74 CALM      30.01S
MAPLE LAKE     PTCLDY    68  61  77 SW3       30.01F
$$
MNZ037-044-045-052-053-010600-
   East Central Minnesota

CITY           SKY/WX    TMP DP  RH WIND       PRES   REMARKS
PRINCETON      PTCLDY    63  57  82 CALM      30.00S
MORA           CLEAR     55  52  88 CALM      30.01S
CAMBRIDGE      PTCLDY    68  55  64 CALM      29.98S
RUSH CITY      PTCLDY    60  55  81 CALM      29.99S
MOOSE LAKE     CLEAR     54  52  94 SW3       29.96S
HINCKLEY       FAIR      55  54  94 CALM      29.99R
CLOQUET        CLEAR     63  46  55 W5        29.96S
MCGREGOR       CLEAR     55  50  82 CALM      29.99S
$$
MNZ071>073-080-081-089-090-097-098-010600-
   Southwest Minnesota

CITY           SKY/WX    TMP DP  RH WIND       PRES   REMARKS
MONTEVIDEO     CLEAR     66  54  63 SW6       30.02S
GRANITE FALLS  CLEAR     64  60  87 S6        30.02F
CANBY          CLEAR     69  59  70 W9        30.02S
MARSHALL       CLEAR     70  57  64 SW9       30.03F
REDWOOD FALLS  CLEAR     67  60  78 S6        30.01S
OLIVIA         CLEAR     63  55  77 S3        30.01S
PIPESTONE      CLEAR     64  61  88 SW5       30.07S
WINDOM         CLEAR     68  61  77 SW8       30.05S
WORTHINGTON    CLEAR     68  57  68 SW8       30.07S
JACKSON        CLEAR     68  59  73 SW7       30.07S
TRACY          CLEAR     70  63  78 SW9       30.03F
SLAYTON        CLEAR     66  61  84 CALM      30.06F
$$
MNZ065>067-074>077-082>085-091>093-010600-
   South Central Minnesota

CITY           SKY/WX    TMP DP  RH WIND       PRES   REMARKS
MANKATO        MOCLDY    66  55  68 S6        30.02F
NEW ULM        CLEAR     64  61  88 SW5       30.02S
ST JAMES       CLEAR     66  61  82 S6        30.04F
FAIRMONT       FAIR      64  54  68 SW8       30.04F
GLENCOE        CLEAR     64  61  90 CALM      30.00F
FARIBAULT      CLEAR     63  59  88 CALM      30.03F
OWATONNA       MOCLDY    64  57  77 S5        30.04S
WASECA         MOCLDY    61  59  94 CALM      30.05S
ALBERT LEA     CLEAR     64  63  94 SW3       30.05S
$$
MNZ078>079-086>088-094>096-010600-
   Southeast Minnesota

CITY           SKY/WX    TMP DP  RH WIND       PRES   REMARKS
ROCHESTER      CLEAR     62  57  83 W8        30.05S
RED WING       CLEAR     61  57  88 CALM      29.99S
STANTON        CLEAR     63  58  82 CALM      30.00S
DODGE CENTER   PTCLDY    61  57  88 W5        30.04F
WINONA         CLEAR     64  59  82 CALM      30.01S
AUSTIN         CLEAR     63  59  88 SW5       30.05S
PRESTON        CLEAR     64  56  76 W7        30.05S
$$
ABBREVIATIONS USED IN REMARKS
   TC - TEMPERATURES IN CELSIUS
  WCI - WIND CHILL INDEX
   HX - HEAT INDEX
  VSB - VISIBILITY
$$


USA.gov is the U.S. government's official web portal to all federal, state and local government web resources and services.